Location: Dana
(41.8364°N, 106.7042°W)
Time: 01:46:48
(UTC+00:00)

Transit 4A - Pass Details

Date: 16 May 2026
Orbit: 860 x 980 km, 66.8° (Epoch: 6 June)

Event Time Altitude Azimuth Distance (km) Brightness Sun altitude
Rises 13:56:53 0° 186° (S) 3,522 10.8 22.5°
Reaches altitude 10° 13:59:28 10° 179° (S) 2,603 10.3 23.0°
Maximum altitude 14:05:07 42° 111° (ESE) 1,316 10.1 24.0°
Drops below altitude 10° 14:10:57 10° 43° (NE) 2,694 11.1 25.1°
Sets 14:13:39 0° 37° (NE) 3,658 11.6 25.6°
